EW9464 Weather Reports


time (UTC)temp
F
wind
direction
speed
knots
gust
knots
rain 1hr
in
rain 24hr
in
rain mn
in
humidity
%
barometer
mb
20260508164544 55 360 6.1 11.3 0.00 0.00 0.00 47 1019.0
20260508163043 54 360 7.8 13.0 0.00 0.00 0.00 49 1018.9
20260508161545 55 360 5.2 12.2 0.00 0.00 0.00 49 1019.3
20260508160138 54 360 7.0 12.2 0.00 0.00 0.00 48 1019.3
20260508154542 54 360 7.8 12.2 0.00 0.00 0.00 44 1019.4
20260508153032 52 360 5.2 10.4 0.00 0.00 0.00 43 1019.6
20260508151531 53 360 5.2 10.4 0.00 0.00 0.00 42 1019.6
20260508150029 52 360 3.5 7.8 0.00 0.00 0.00 45 1019.7
20260508144524 50 360 1.7 8.7 0.00 0.00 0.00 44 1019.6
20260508143020 49 360 2.6 7.8 0.00 0.00 0.00 43 1019.6
20260508141518 46 360 0.9 7.0 0.00 0.00 0.00 47 1019.6
20260508140015 45 360 2.6 7.0 0.00 0.00 0.00 49 1019.7
20260508134511 46 360 1.7 3.5 0.00 0.00 0.00 43 1019.6
20260508133006 45 360 0.9 3.5 0.00 0.00 0.00 40 1019.3
20260508131504 45 360 0.9 2.6 0.00 0.00 0.00 41 1019.2
20260508130003 45 360 1.7 3.5 0.00 0.00 0.00 41 1018.9
20260508124558 44 360 0.9 3.5 0.00 0.00 0.00 44 1019.0
20260508123058 42 360 1.7 4.3 0.00 0.00 0.00 54 1018.7
20260508121603 41 360 2.6 7.0 0.00 0.00 0.00 64 1018.6
20260508120058 39 360 2.6 7.8 0.00 0.00 0.00 67 1018.3
20260508114548 38 360 2.6 7.0 0.00 0.00 0.00 73 1017.9
20260508113055 37 360 1.7 7.0 0.00 0.00 0.00 76 1017.4
20260508111554 36 360 1.7 5.2 0.00 0.00 0.00 81 1017.2
20260508110056 36 360 2.6 7.8 0.00 0.00 0.00 82 1016.9
20260508104538 35 360 2.6 8.7 0.00 0.00 0.00 84 1016.8
20260508103047 35 360 3.5 8.7 0.00 0.00 0.00 84 1016.2
20260508101541 35 360 3.5 7.8 0.00 0.00 0.00 84 1016.1
20260508100032 35 360 3.5 8.7 0.00 0.00 0.00 80 1015.8
20260508094529 34 360 3.5 10.4 0.00 0.00 0.00 64 1015.7
20260508093028 34 360 4.3 10.4 0.00 0.00 0.00 57 1015.6
20260508091526 34 360 4.3 10.4 0.00 0.00 0.00 57 1015.5
20260508090024 34 360 4.3 10.4 0.00 0.00 0.00 56 1015.4
20260508084521 34 360 4.3 12.2 0.00 0.00 0.00 56 1015.3
20260508083019 33 360 4.3 8.7 0.00 0.00 0.00 56 1015.2
20260508081519 33 360 4.3 10.4 0.00 0.00 0.00 56 1015.2
20260508080016 34 360 4.3 10.4 0.00 0.00 0.00 56 1015.2
20260508074549 34 360 3.5 8.7 0.00 0.00 0.00 56 1015.1
20260508073040 35 360 3.5 9.6 0.00 0.00 0.00 55 1015.0
20260508071508 35 360 1.7 7.8 0.00 0.00 0.00 55 1015.0
20260508070006 36 360 2.6 8.7 0.00 0.00 0.00 55 1015.1
20260508064615 36 360 3.5 9.6 0.00 0.00 0.00 54 1015.2
20260508063058 37 360 1.7 10.4 0.00 0.00 0.00 54 1015.3
20260508061558 37 360 6.1 12.2 0.00 0.00 0.00 54 1015.1
20260508060054 38 360 3.5 11.3 0.00 0.00 0.00 54 1015.3
20260508054600 38 360 5.2 10.4 0.00 0.00 0.00 53 1015.3
20260508053023 39 360 3.5 11.3 0.00 0.00 0.00 53 1015.1
20260508051517 39 360 1.7 12.2 0.00 0.00 0.00 53 1015.1
20260508050044 39 360 5.2 13.0 0.00 0.00 0.00 53 1015.0
20260508044543 39 360 7.0 13.9 0.00 0.00 0.00 52 1014.8
20260508043042 40 360 6.1 14.8 0.00 0.00 0.00 52 1014.6
20260508041539 40 360 3.5 13.9 0.00 0.00 0.00 52 1014.5
20260508040040 40 360 4.3 13.0 0.00 0.00 0.00 53 1014.5
20260508034537 40 360 5.2 10.4 0.00 0.00 0.00 53 1014.3
20260508033005 40 360 2.6 12.2 0.00 0.00 0.00 53 1014.3
20260508031505 39 360 7.0 14.8 0.00 0.00 0.00 53 1014.2
20260508030002 40 360 5.2 13.9 0.00 0.00 0.00 53 1014.0
20260508024503 40 360 7.0 13.9 0.00 0.00 0.00 53 1013.7
20260508023100 40 360 6.1 11.3 0.00 0.00 0.00 53 1013.9
20260508021558 39 360 4.3 9.6 0.00 0.00 0.00 53 1013.8
20260508020056 39 360 3.5 10.4 0.00 0.00 0.00 53 1013.5
20260508014555 39 360 1.7 8.7 0.00 0.00 0.00 54 1013.2
20260508011551 39 360 2.6 8.7 0.00 0.00 0.00 54 1012.7
20260508010045 39 360 2.6 11.3 0.00 0.00 0.00 54 1012.4
20260508004543 39 360 3.5 8.7 0.00 0.00 0.00 54 1012.1
20260508003057 39 360 5.2 11.3 0.00 0.00 0.00 54 1011.8
20260508001543 39 360 4.3 11.3 0.00 0.00 0.00 54 1011.9
20260508000042 39 360 5.2 11.3 0.00 0.00 0.00 54 1011.8
20260507234635 39 360 6.1 13.9 0.00 0.00 0.00 54 1012.0
20260507233037 39 360 4.3 13.0 0.00 0.00 0.00 55 1011.8
20260507231534 39 360 4.3 14.8 0.00 0.00 0.00 55 1011.8
20260507230030 39 360 7.0 15.6 0.00 0.00 0.00 55 1011.7
20260507224527 39 360 7.8 14.8 0.00 0.00 0.00 55 1011.5
20260507223024 40 360 4.3 13.9 0.00 0.00 0.00 55 1011.2
20260507221520 40 360 4.3 10.4 0.00 0.00 0.00 55 1010.9
20260507220016 40 360 2.6 12.2 0.00 0.00 0.00 56 1010.7
20260507214515 40 360 3.5 10.4 0.00 0.00 0.00 56 1010.7
20260507213012 40 360 5.2 12.2 0.00 0.00 0.00 57 1010.5
20260507211510 41 360 7.0 13.9 0.00 0.00 0.00 57 1010.3
20260507210005 41 360 6.1 15.6 0.00 0.00 0.00 58 1009.9
20260507204501 43 360 4.3 13.0 0.00 0.00 0.00 57 1009.8
20260507203110 43 360 2.6 10.4 0.00 0.00 0.00 57 1009.5
20260507201611 44 360 3.5 9.6 0.00 0.00 0.00 58 1009.5
20260507200024 44 360 4.3 9.6 0.00 0.00 0.00 58 1009.1
20260507194524 45 360 7.0 12.2 0.00 0.00 0.00 60 1009.2
20260507193018 45 360 5.2 11.3 0.00 0.00 0.00 63 1009.3
20260507191514 46 360 6.1 13.9 0.00 0.00 0.00 62 1009.2
20260507190012 46 360 4.3 13.9 0.00 0.00 0.00 70 1009.9
20260507184512 48 360 7.0 15.6 0.00 0.00 0.00 76 1009.6
20260507183005 50 360 8.7 14.8 0.00 0.00 0.00 79 1009.4
20260507181505 49 360 6.1 13.9 0.00 0.00 0.00 73 1009.4
20260507180006 49 360 7.0 12.2 0.00 0.00 0.00 67 1009.3
20260507174501 48 360 7.8 14.8 0.00 0.00 0.00 64 1009.4
20260507173103 48 360 5.2 13.9 0.00 0.00 0.00 69 1009.4
20260507171557 49 360 4.3 8.7 0.00 0.00 0.00 73 1009.3
20260507170053 50 360 2.6 13.0 0.00 0.00 0.00 71 1009.3